Salida, CO

7:31 AM MDT on July 25, 2017 (GMT -0600)
Salida

Weather History for KANK - November, 2012

Change the Weather History Date:

Monday, November 5, 2012

  Actual Average (KGUC) Record (KGUC)
Temperature  
Mean Temperature 46 °F -  
Max Temperature 64 °F 45 °F 60 °F (1999)
Min Temperature 29 °F 18 °F 12 °F (1999)
Degree Days  
Heating Degree Days 18    
Moisture  
Dew Point 22 °F    
Average Humidity 43    
Maximum Humidity 71    
Minimum Humidity 19    
Precipitation  
Precipitation 0.00 in - - ()
Sea Level Pressure  
Sea Level Pressure 30.42 in    
Wind  
Wind Speed 5 mph (WNW)    
Max Wind Speed 17 mph    
Max Gust Speed 25 mph    
Visibility 10 miles    
Events      
Averages and records for this station are not official NWS values.
T = Trace of Precipitation, MM = Missing Value Source: NWS Daily Summary

Daily Weather History Graph

Daily Weather History Graph

Search for Another Location

Airport or City:

Trip Planner

Search our weather history database for the weather conditions in past years. The results will help you decide how hot, cold, wet, or windy it might be!

Date:

Astronomy

Nov. 05, 2012 Rise Set
Actual Time 6:35 AM MST 4:59 PM MST
Civil Twilight 6:07 AM MST 5:27 PM MST
Nautical Twilight 5:36 AM MST 5:58 PM MST
Astronomical Twilight 5:05 AM MST 6:29 PM MST
Moon 10:39 PM MST (11/5) 11:56 AM MST (11/5)
Length of Visible Light 11h 19m
Length of Day
10h 23m
Waning Gibbous, 62% of the Moon is Illuminated
Nov 5
Waning Gibbous
Nov 6
Last Quarter
Nov 13
New
Nov 20
First Quarter
Nov 28
Full

Hourly Weather History & Observations

Time (MST) Temp. Windchill Dew Point Humidity Pressure Visibility Wind Dir Wind Speed Gust Speed Precip Events Conditions
12:15 AM 36.7 °F 30.5 °F 20.1 °F 51% 30.48 in 10.0 mi West 8.1 mph - N/A   Clear
12:35 AM 35.2 °F 29.5 °F 20.7 °F 55% 30.47 in 10.0 mi West 6.9 mph - N/A   Clear
12:55 AM 36.1 °F 32.3 °F 20.3 °F 53% 30.47 in 10.0 mi WNW 4.6 mph - N/A   Clear
1:15 AM 34.2 °F 27.5 °F 20.1 °F 57% 30.46 in 10.0 mi West 8.1 mph - N/A   Clear
1:35 AM 33.3 °F 27.9 °F 20.1 °F 59% 30.46 in 10.0 mi WNW 5.8 mph - N/A   Clear
1:55 AM 33.8 °F 30.8 °F 20.3 °F 58% 30.46 in 10.0 mi WNW 3.5 mph - N/A   Clear
2:15 AM 34.7 °F 31.8 °F 20.7 °F 57% 30.45 in 10.0 mi WNW 3.5 mph - N/A   Clear
2:35 AM 32.2 °F - 19.9 °F 61% 30.45 in 10.0 mi Calm Calm - N/A   Clear
2:55 AM 31.8 °F - 19.8 °F 61% 30.45 in 10.0 mi Calm Calm - N/A   Clear
3:15 AM 30.7 °F - 20.1 °F 65% 30.45 in 10.0 mi Calm Calm - N/A   Clear
3:35 AM 32.5 °F 27.1 °F 21.0 °F 63% 30.44 in 10.0 mi WSW 5.8 mph - N/A   Clear
3:55 AM 31.5 °F 25.8 °F 20.8 °F 65% 30.44 in 10.0 mi West 5.8 mph - N/A   Clear
4:15 AM 30.9 °F 26.2 °F 20.8 °F 66% 30.44 in 10.0 mi West 4.6 mph - N/A   Clear
4:35 AM 30.9 °F - 20.8 °F 66% 30.45 in 10.0 mi Calm Calm - N/A   Clear
4:55 AM 30.0 °F - 20.5 °F 68% 30.45 in 10.0 mi Calm Calm - N/A   Clear
5:15 AM 29.3 °F - 20.8 °F 71% 30.45 in 10.0 mi Calm Calm - N/A   Clear
5:35 AM 30.2 °F - 20.8 °F 68% 30.44 in 10.0 mi Calm Calm - N/A   Clear
5:55 AM 29.8 °F - 20.3 °F 68% 30.44 in 10.0 mi Calm Calm - N/A   Clear
6:15 AM 29.5 °F - 20.3 °F 69% 30.44 in 10.0 mi Calm Calm - N/A   Clear
6:35 AM 30.6 °F - 20.7 °F 67% 30.44 in 10.0 mi Calm Calm - N/A   Clear
6:55 AM 30.7 °F 27.3 °F 20.7 °F 66% 30.45 in 10.0 mi SW 3.5 mph - N/A   Clear
7:15 AM 33.1 °F 30.0 °F 22.1 °F 64% 30.45 in 10.0 mi NW 3.5 mph - N/A   Clear
7:35 AM 37.6 °F - 23.0 °F 56% 30.46 in 10.0 mi Calm Calm - N/A   Clear
7:55 AM 40.1 °F 38.0 °F 23.7 °F 52% 30.46 in 10.0 mi SW 3.5 mph - N/A   Clear
8:15 AM 41.4 °F - 23.7 °F 50% 30.46 in 10.0 mi Calm Calm - N/A   Clear
8:35 AM 45.0 °F 43.5 °F 24.3 °F 44% 30.47 in 10.0 mi NNW 3.5 mph - N/A   Clear
8:55 AM 43.9 °F 42.3 °F 23.9 °F 45% 30.47 in 10.0 mi North 3.5 mph - N/A   Clear
9:15 AM 48.0 °F - 24.4 °F 40% 30.46 in 10.0 mi North 3.5 mph - N/A   Clear
9:35 AM 49.5 °F - 25.2 °F 39% 30.45 in 10.0 mi North 4.6 mph - N/A   Clear
9:55 AM 51.1 °F - 25.9 °F 38% 30.44 in 10.0 mi North 6.9 mph - N/A   Clear
10:15 AM 51.4 °F - 25.5 °F 37% 30.44 in 10.0 mi North 6.9 mph - N/A   Clear
10:35 AM 54.3 °F - 25.3 °F 33% 30.44 in 10.0 mi North 8.1 mph - N/A   Clear
10:55 AM 55.8 °F - 25.2 °F 31% 30.43 in 10.0 mi NNW 6.9 mph - N/A   Clear
11:15 AM 56.5 °F - 24.8 °F 30% 30.42 in 10.0 mi NE 4.6 mph - N/A   Clear
11:35 AM 57.2 °F - 23.4 °F 27% 30.41 in 10.0 mi Calm Calm - N/A   Clear
11:55 AM 59.9 °F - 24.1 °F 25% 30.39 in 10.0 mi NNE 5.8 mph - N/A   Clear
12:15 PM 59.5 °F - 23.7 °F 25% 30.38 in 10.0 mi NE 5.8 mph - N/A   Clear
12:55 PM 61.2 °F - 21.4 °F 22% 30.35 in 10.0 mi West 3.5 mph - N/A   Clear
1:15 PM 62.4 °F - 21.4 °F 21% 30.34 in 10.0 mi SW 6.9 mph - N/A   Clear
1:35 PM 62.8 °F - 21.0 °F 20% 30.34 in 10.0 mi South 5.8 mph - N/A   Clear
1:55 PM 63.1 °F - 21.0 °F 20% 30.33 in 10.0 mi Calm Calm - N/A   Clear
2:15 PM 64.2 °F - 21.2 °F 19% 30.33 in 10.0 mi WSW 6.9 mph - N/A   Clear
2:35 PM 64.8 °F - 21.2 °F 19% 30.33 in 10.0 mi WSW 15.0 mph 21.9 mph N/A   Clear
2:55 PM 63.9 °F - 21.7 °F 20% 30.34 in 10.0 mi West 17.3 mph 25.3 mph N/A   Clear
3:15 PM 62.8 °F - 22.3 °F 21% 30.33 in 10.0 mi WSW 13.8 mph 19.6 mph N/A   Clear
3:55 PM 61.5 °F - 23.0 °F 23% 30.34 in 10.0 mi West 12.7 mph 19.6 mph N/A   Clear
4:15 PM 59.7 °F - 23.9 °F 25% 30.34 in 10.0 mi West 12.7 mph - N/A   Clear
4:35 PM 59.5 °F - 23.5 °F 25% 30.34 in 10.0 mi West 9.2 mph 21.9 mph N/A   Clear
4:55 PM 58.6 °F - 23.7 °F 26% 30.34 in 10.0 mi West 15.0 mph 24.2 mph N/A   Clear
5:15 PM 57.6 °F - 23.9 °F 27% 30.35 in 10.0 mi WNW 11.5 mph 19.6 mph N/A   Clear
5:35 PM 57.7 °F - 24.1 °F 27% 30.35 in 10.0 mi WNW 10.4 mph 25.3 mph N/A   Clear
5:55 PM 57.6 °F - 23.7 °F 27% 30.37 in 10.0 mi NW 13.8 mph 19.6 mph N/A   Clear
6:15 PM 56.5 °F - 20.3 °F 24% 30.39 in 10.0 mi NW 6.9 mph - N/A   Clear
6:35 PM 55.2 °F - 23.0 °F 29% 30.39 in 10.0 mi NW 11.5 mph - N/A   Clear
6:55 PM 55.2 °F - 22.5 °F 28% 30.39 in 10.0 mi Calm Calm - N/A   Clear
7:15 PM 54.0 °F - 21.4 °F 28% 30.39 in 10.0 mi North 11.5 mph 16.1 mph N/A   Clear
7:55 PM 52.9 °F - 22.8 °F 31% 30.40 in 10.0 mi WNW 5.8 mph - N/A   Clear
8:15 PM 52.0 °F - 22.5 °F 32% 30.40 in 10.0 mi NNW 6.9 mph - N/A   Clear
8:35 PM 51.8 °F - 23.4 °F 33% 30.41 in 10.0 mi NW 8.1 mph - N/A   Clear
8:55 PM 49.1 °F - 22.8 °F 36% 30.42 in 10.0 mi WSW 4.6 mph - N/A   Clear
9:15 PM 48.2 °F - 23.0 °F 37% 30.42 in 10.0 mi WSW 5.8 mph - N/A   Clear
9:35 PM 47.7 °F - 23.0 °F 38% 30.42 in 10.0 mi West 8.1 mph - N/A   Clear
9:55 PM 44.4 °F 39.5 °F 22.8 °F 43% 30.42 in 10.0 mi West 9.2 mph - N/A   Clear
10:15 PM 43.7 °F - 23.0 °F 44% 30.43 in 10.0 mi Calm Calm - N/A   Clear
10:35 PM 40.1 °F 38.0 °F 22.3 °F 49% 30.43 in 10.0 mi WSW 3.5 mph - N/A   Clear
10:55 PM 40.1 °F 34.7 °F 22.6 °F 50% 30.43 in 10.0 mi West 8.1 mph - N/A   Clear
11:15 PM 39.2 °F 35.9 °F 22.5 °F 51% 30.44 in 10.0 mi WSW 4.6 mph - N/A   Clear
11:35 PM 40.1 °F 34.7 °F 22.1 °F 49% 30.45 in 10.0 mi West 8.1 mph - N/A   Clear
11:55 PM 39.6 °F 35.4 °F 21.9 °F 49% 30.45 in 10.0 mi West 5.8 mph - N/A   Clear